This is the latest recevied weather packets stored in our database for station/object KW4UJ. If no packets are shown the sender has not sent any weather packets the latest 10 day(s).
| Time | Temp. | Humidity | Pressure | Rain* | Wind** | Luminosity | Snow |
|---|---|---|---|---|---|---|---|
| 1777741083 | 13.89° C | 42% | 1013.9 hPa | 0 mm | - | 619 W/m² | - |
| 1777740780 | 13.89° C | 43% | 1013.7 hPa | 0 mm | - | 423 W/m² | - |
| 1777740477 | 14.44° C | 42% | 1013.7 hPa | 0 mm | - | 629 W/m² | - |
| 1777740174 | 13.33° C | 48% | 1014.1 hPa | 0 mm | - | 660 W/m² | - |
| 1777739870 | 12.78° C | 48% | 1013.9 hPa | 0 mm | - | 393 W/m² | - |
| 1777739567 | 12.78° C | 49% | 1014.4 hPa | 0 mm | - | 280 W/m² | - |
| 1777739264 | 12.78° C | 48% | 1014.1 hPa | 0 mm | - | 281 W/m² | - |
| 1777738960 | 12.78° C | 53% | 1014.3 hPa | 0 mm | - | 295 W/m² | - |
| 1777738657 | 12.22° C | 52% | 1014.2 hPa | 0 mm | - | 310 W/m² | - |
| 1777738354 | 11.67° C | 54% | 1014.2 hPa | 0 mm | - | 253 W/m² | - |
| 1777738052 | 12.22° C | 51% | 1014.2 hPa | 0 mm | - | 231 W/m² | - |
| 1777737751 | 12.22° C | 53% | 1014.2 hPa | 0 mm | - | 235 W/m² | - |
| 1777737449 | 12.22° C | 53% | 1014.5 hPa | 0 mm | - | 263 W/m² | - |
| 1777737146 | 12.22° C | 53% | 1014.4 hPa | 0 mm | - | 238 W/m² | - |
| 1777736842 | 11.67° C | 52% | 1014.4 hPa | 0 mm | - | 234 W/m² | - |
| 1777736223 | 12.22° C | 53% | 1014.5 hPa | 0 mm | - | 261 W/m² | - |
| 1777735920 | 11.67° C | 54% | 1014.5 hPa | 0 mm | - | 255 W/m² | - |
| 1777735618 | 11.67° C | 53% | 1014.5 hPa | 0 mm | - | 260 W/m² | - |
| 1777735315 | 11.67° C | 54% | 1014.5 hPa | 0 mm | - | 300 W/m² | - |
| 1777735012 | 11.67° C | 55% | 1014.7 hPa | 0 mm | - | 288 W/m² | - |
| 1777734710 | 11.67° C | 54% | 1014.6 hPa | 0 mm | - | 265 W/m² | - |
| 1777734407 | 11.11° C | 56% | 1014.8 hPa | 0 mm | - | 254 W/m² | - |
| 1777734103 | 11.11° C | 57% | 1014.5 hPa | 0 mm | - | 281 W/m² | - |
| 1777733799 | 11.11° C | 57% | 1014.8 hPa | 0 mm | - | 275 W/m² | - |
| 1777733496 | 11.11° C | 58% | 1014.6 hPa | 0 mm | - | 263 W/m² | - |
* Rain latest hour (hover to see other rain measurements)
** Current wind speed in m/s (hover to see current wind gust speed)